TimeCDT,TemperatureF,Dew PointF,Humidity,Sea Level PressureIn,VisibilityMPH,Wind Direction,Wind SpeedMPH,Gust SpeedMPH,PrecipitationIn,Events,Conditions,WindDirDegrees,DateUTC
12:58 AM,75.7,71.2,86,30.25,10.0,East,4.6,-,N/A,,Clear,80,2013-07-16 05:58:00
1:58 AM,74.3,71.6,91,30.25,10.0,ESE,3.5,-,N/A,,Clear,120,2013-07-16 06:58:00
2:58 AM,74.1,71.6,92,30.25,10.0,East,3.5,-,N/A,,Clear,100,2013-07-16 07:58:00
3:58 AM,73.6,71.6,93,30.25,10.0,East,2.3,-,N/A,,Clear,90,2013-07-16 08:58:00
4:17 AM,73.4,71.6,94,30.26,10.0,East,3.5,-,N/A,,Light Drizzle,100,2013-07-16 09:17:00
4:25 AM,73.4,71.6,94,30.26,10.0,ESE,2.3,-,N/A,,Clear,110,2013-07-16 09:25:00
4:58 AM,72.5,71.6,97,30.26,10.0,East,2.3,-,0.00,,Clear,90,2013-07-16 09:58:00
5:58 AM,72.7,71.4,96,30.28,10.0,ESE,1.2,-,N/A,,Light Drizzle,110,2013-07-16 10:58:00
6:00 AM,71.6,71.6,100,30.29,10.0,ESE,1.2,-,N/A,,Clear,120,2013-07-16 11:00:00
6:05 AM,71.6,71.6,100,30.29,10.0,ESE,1.2,-,N/A,,Light Drizzle,110,2013-07-16 11:05:00
6:08 AM,71.6,71.6,100,30.29,10.0,East,1.2,-,N/A,,Clear,80,2013-07-16 11:08:00
6:58 AM,74.1,73.2,97,30.29,10.0,NE,3.5,-,0.00,,Clear,50,2013-07-16 11:58:00
7:35 AM,77.0,71.6,83,30.31,10.0,ESE,4.6,-,N/A,,Light Drizzle,110,2013-07-16 12:35:00
7:45 AM,77.0,71.6,83,30.32,10.0,East,5.8,-,N/A,,Clear,100,2013-07-16 12:45:00
7:58 AM,78.3,71.8,80,30.31,10.0,ESE,5.8,-,0.00,,Clear,110,2013-07-16 12:58:00
8:58 AM,82.6,71.1,68,30.32,10.0,SSW,5.8,-,N/A,,Clear,200,2013-07-16 13:58:00
9:58 AM,85.5,70.9,62,30.32,10.0,SSW,5.8,-,N/A,,Clear,210,2013-07-16 14:58:00
10:58 AM,86.4,70.7,59,30.32,10.0,Variable,2.3,-,N/A,,Clear,0,2013-07-16 15:58:00
11:58 AM,88.0,70.5,56,30.31,10.0,Variable,3.5,-,N/A,,Partly Cloudy,0,2013-07-16 16:58:00
12:58 PM,88.0,69.3,54,30.30,10.0,Variable,4.6,-,N/A,,Partly Cloudy,0,2013-07-16 17:58:00
1:58 PM,88.7,68.4,51,30.28,10.0,Variable,6.9,-,N/A,,Partly Cloudy,0,2013-07-16 18:58:00
2:58 PM,90.0,69.1,50,30.27,10.0,Variable,4.6,-,N/A,,Partly Cloudy,0,2013-07-16 19:58:00
3:58 PM,90.9,68.4,47,30.26,10.0,SE,6.9,-,N/A,,Clear,130,2013-07-16 20:58:00
4:58 PM,90.7,69.6,50,30.25,10.0,ENE,6.9,-,N/A,,Partly Cloudy,60,2013-07-16 21:58:00
5:58 PM,90.3,68.2,48,30.24,10.0,ENE,5.8,-,N/A,,Clear,60,2013-07-16 22:58:00
6:58 PM,89.4,68.9,51,30.24,10.0,ENE,5.8,-,N/A,,Clear,60,2013-07-16 23:58:00
7:58 PM,84.2,72.1,67,30.25,10.0,NE,5.8,-,N/A,,Clear,50,2013-07-17 00:58:00
8:58 PM,80.8,73.8,79,30.26,10.0,NE,4.6,-,N/A,,Clear,50,2013-07-17 01:58:00
9:58 PM,79.0,74.3,85,30.28,10.0,NE,4.6,-,N/A,,Clear,50,2013-07-17 02:58:00
10:58 PM,78.4,74.7,88,30.29,10.0,NE,3.5,-,N/A,,Clear,40,2013-07-17 03:58:00
11:58 PM,77.7,74.8,91,30.29,10.0,NNE,3.5,-,N/A,,Clear,30,2013-07-17 04:58:00